| time (UTC) | temp F | wind direction | speed MPH | gust MPH | rain 1hr in | rain 24hr in | rain mn in | humidity % | barometer mb |
| 20260504191534 | 68 | 158 | 5.0 | 8.0 | 0.00 | 0.00 | 0.00 | 40 | 1017.5 |
| 20260504190534 | 68 | 160 | 2.0 | 4.0 | 0.00 | 0.00 | 0.00 | 39 | 1017.5 |
| 20260504185524 | 68 | 162 | 1.0 | 2.0 | 0.00 | 0.00 | 0.00 | 39 | 1017.4 |
| 20260504184525 | 69 | 147 | 1.0 | 3.0 | 0.00 | 0.00 | 0.00 | 38 | 1017.4 |
| 20260504183540 | 69 | 160 | 1.0 | 3.0 | 0.00 | 0.00 | 0.00 | 37 | 1017.4 |
| 20260504182521 | 71 | 224 | 0.0 | 1.0 | 0.00 | 0.00 | 0.00 | 36 | 1017.2 |
| 20260504181518 | 72 | 228 | 2.0 | 6.0 | 0.00 | 0.00 | 0.00 | 32 | 1017.1 |
| 20260504180532 | 72 | 183 | 3.0 | 7.0 | 0.00 | 0.00 | 0.00 | 31 | 1017.0 |
| 20260504175518 | 73 | 220 | 3.0 | 10.0 | 0.00 | 0.00 | 0.00 | 31 | 1016.9 |
| 20260504174532 | 74 | 233 | 4.0 | 8.0 | 0.00 | 0.00 | 0.00 | 29 | 1016.9 |
| 20260504173529 | 74 | 193 | 3.0 | 7.0 | 0.00 | 0.00 | 0.00 | 30 | 1016.7 |
| 20260504172528 | 74 | 172 | 4.0 | 7.0 | 0.00 | 0.00 | 0.00 | 30 | 1016.7 |
| 20260504171533 | 75 | 295 | 1.0 | 2.0 | 0.00 | 0.00 | 0.00 | 31 | 1016.7 |
| 20260504170533 | 75 | 253 | 1.0 | 2.0 | 0.00 | 0.00 | 0.00 | 29 | 1016.5 |
| 20260504150541 | 77 | 161 | 2.0 | 4.0 | 0.00 | 0.00 | 0.00 | 23 | 1016.5 |
| 20260504140606 | 77 | 161 | 5.0 | 10.0 | 0.00 | 0.00 | 0.00 | 22 | 1016.9 |
| 20260504130533 | 78 | 122 | 5.0 | 14.0 | 0.00 | 0.00 | 0.00 | 22 | 1017.2 |
| 20260504110529 | 74 | 53 | 1.0 | 2.0 | 0.00 | 0.00 | 0.00 | 36 | 1018.1 |
| 20260504100526 | 70 | 35 | 2.0 | 3.0 | 0.00 | 0.00 | 0.00 | 41 | 1019.2 |
| 20260504081613 | 65 | 4 | 2.0 | 4.0 | 0.00 | 0.00 | 0.00 | 48 | 1020.5 |
| 20260504080523 | 66 | 80 | 2.0 | 4.0 | 0.00 | 0.00 | 0.00 | 48 | 1020.7 |
| 20260504050522 | 51 | 195 | 0.0 | 1.0 | 0.00 | 0.00 | 0.00 | 73 | 1021.4 |
| 20260504045559 | 50 | 207 | 1.0 | 2.0 | 0.00 | 0.00 | 0.00 | 75 | 1021.4 |
| 20260504044532 | 50 | 23 | 1.0 | 2.0 | 0.00 | 0.00 | 0.00 | 78 | 1021.3 |
| 20260504043528 | 50 | 298 | 0.0 | 1.0 | 0.00 | 0.00 | 0.00 | 75 | 1021.3 |
| 20260504042530 | 50 | 198 | 0.0 | 1.0 | 0.00 | 0.00 | 0.00 | 76 | 1021.2 |
| 20260504041538 | 50 | 23 | 1.0 | 1.0 | 0.00 | 0.00 | 0.00 | 78 | 1021.3 |
| 20260504040547 | 50 | 11 | 1.0 | 2.0 | 0.00 | 0.00 | 0.00 | 76 | 1021.2 |
| 20260504035534 | 50 | 0 | 0.0 | 1.0 | 0.00 | 0.00 | 0.00 | 77 | 1021.1 |
| 20260504034522 | 52 | 307 | 0.0 | 1.0 | 0.00 | 0.00 | 0.00 | 72 | 1021.0 |
| 20260504033519 | 52 | 0.0 | 0.0 | 0.00 | 0.00 | 0.00 | 72 | 1021.2 | |
| 20260504032533 | 52 | 307 | 0.0 | 1.0 | 0.00 | 0.00 | 0.00 | 72 | 1021.2 |
| 20260504031538 | 52 | 314 | 0.0 | 2.0 | 0.00 | 0.00 | 0.00 | 72 | 1021.1 |
| 20260504030526 | 52 | 322 | 2.0 | 3.0 | 0.00 | 0.00 | 0.00 | 71 | 1021.0 |
| 20260504025521 | 53 | 0.0 | 0.0 | 0.00 | 0.00 | 0.00 | 70 | 1020.9 | |
| 20260504024532 | 54 | 305 | 1.0 | 1.0 | 0.00 | 0.00 | 0.00 | 67 | 1020.9 |
| 20260504023533 | 54 | 342 | 2.0 | 2.0 | 0.00 | 0.00 | 0.00 | 68 | 1021.0 |
| 20260504022541 | 53 | 0.0 | 0.0 | 0.00 | 0.00 | 0.00 | 68 | 1020.9 | |
| 20260504021519 | 55 | 349 | 1.0 | 2.0 | 0.00 | 0.00 | 0.00 | 67 | 1020.9 |
| 20260504020522 | 55 | 0.0 | 0.0 | 0.00 | 0.00 | 0.00 | 65 | 1020.9 | |
| 20260504015519 | 54 | 306 | 0.0 | 1.0 | 0.00 | 0.00 | 0.00 | 65 | 1020.9 |
| 20260504014534 | 54 | 3 | 1.0 | 3.0 | 0.00 | 0.00 | 0.00 | 67 | 1020.9 |
| 20260504013517 | 55 | 336 | 2.0 | 3.0 | 0.00 | 0.00 | 0.00 | 65 | 1020.9 |
| 20260504012526 | 54 | 180 | 1.0 | 2.0 | 0.00 | 0.00 | 0.00 | 65 | 1020.6 |
| 20260504011527 | 55 | 346 | 0.0 | 1.0 | 0.00 | 0.00 | 0.00 | 65 | 1020.6 |
| 20260504010529 | 55 | 355 | 0.0 | 1.0 | 0.00 | 0.00 | 0.00 | 62 | 1020.6 |
| 20260504005526 | 55 | 341 | 1.0 | 2.0 | 0.00 | 0.00 | 0.00 | 62 | 1020.5 |
| 20260504004534 | 56 | 305 | 1.0 | 2.0 | 0.00 | 0.00 | 0.00 | 59 | 1020.5 |
| 20260504003517 | 56 | 331 | 0.0 | 1.0 | 0.00 | 0.00 | 0.00 | 61 | 1020.6 |
| 20260504002527 | 56 | 329 | 0.0 | 1.0 | 0.00 | 0.00 | 0.00 | 59 | 1020.4 |
| 20260504001518 | 56 | 0.0 | 0.0 | 0.00 | 0.00 | 0.00 | 59 | 1020.3 | |
| 20260504000527 | 56 | 328 | 1.0 | 2.0 | 0.00 | 0.00 | 0.00 | 59 | 1020.4 |
| 20260503235528 | 57 | 16 | 0.0 | 1.0 | 0.00 | 0.00 | 0.00 | 57 | 1020.4 |
| 20260503234549 | 56 | 304 | 1.0 | 2.0 | 0.00 | 0.00 | 0.00 | 58 | 1020.4 |
| 20260503233533 | 57 | 319 | 0.0 | 1.0 | 0.00 | 0.00 | 0.00 | 60 | 1020.4 |
| 20260503232521 | 58 | 319 | 0.0 | 1.0 | 0.00 | 0.00 | 0.00 | 56 | 1020.2 |
| 20260503231558 | 58 | 319 | 0.0 | 1.0 | 0.00 | 0.00 | 0.00 | 54 | 1020.3 |
| 20260503230553 | 57 | 341 | 1.0 | 1.0 | 0.00 | 0.00 | 0.00 | 55 | 1020.3 |
| 20260503225522 | 58 | 329 | 1.0 | 2.0 | 0.00 | 0.00 | 0.00 | 51 | 1020.2 |
| 20260503224602 | 59 | 323 | 0.0 | 1.0 | 0.00 | 0.00 | 0.00 | 51 | 1020.1 |
| 20260503223519 | 59 | 340 | 1.0 | 2.0 | 0.00 | 0.00 | 0.00 | 50 | 1020.1 |
| 20260503222553 | 60 | 316 | 1.0 | 2.0 | 0.00 | 0.00 | 0.00 | 46 | 1020.0 |
| 20260503221553 | 60 | 284 | 0.0 | 1.0 | 0.00 | 0.00 | 0.00 | 47 | 1019.9 |
| 20260503220538 | 59 | 268 | 0.0 | 2.0 | 0.00 | 0.00 | 0.00 | 51 | 1019.8 |
| 20260503215518 | 61 | 268 | 0.0 | 1.0 | 0.00 | 0.00 | 0.00 | 46 | 1019.7 |
| 20260503214533 | 61 | 259 | 1.0 | 2.0 | 0.00 | 0.00 | 0.00 | 46 | 1019.7 |
| 20260503213528 | 62 | 286 | 1.0 | 1.0 | 0.00 | 0.00 | 0.00 | 44 | 1019.4 |
| 20260503212529 | 61 | 309 | 0.0 | 1.0 | 0.00 | 0.00 | 0.00 | 45 | 1019.5 |
| 20260503211614 | 61 | 309 | 1.0 | 2.0 | 0.00 | 0.00 | 0.00 | 46 | 1019.4 |
| 20260503210542 | 62 | 309 | 1.0 | 2.0 | 0.00 | 0.00 | 0.00 | 44 | 1019.2 |
| 20260503205518 | 62 | 330 | 1.0 | 3.0 | 0.00 | 0.00 | 0.00 | 43 | 1019.2 |
| 20260503204533 | 64 | 339 | 0.0 | 2.0 | 0.00 | 0.00 | 0.00 | 40 | 1019.1 |
| 20260503203522 | 64 | 294 | 2.0 | 2.0 | 0.00 | 0.00 | 0.00 | 39 | 1019.1 |
| 20260503202522 | 65 | 339 | 2.0 | 3.0 | 0.00 | 0.00 | 0.00 | 37 | 1019.1 |
| 20260503201518 | 64 | 319 | 2.0 | 3.0 | 0.00 | 0.00 | 0.00 | 40 | 1019.1 |
| 20260503200533 | 64 | 342 | 2.0 | 3.0 | 0.00 | 0.00 | 0.00 | 40 | 1018.9 |
| 20260503195517 | 65 | 312 | 1.0 | 2.0 | 0.00 | 0.00 | 0.00 | 38 | 1018.8 |
| 20260503194526 | 64 | 338 | 1.0 | 3.0 | 0.00 | 0.00 | 0.00 | 39 | 1018.8 |
| 20260503193527 | 65 | 337 | 3.0 | 6.0 | 0.00 | 0.00 | 0.00 | 37 | 1018.5 |
| 20260503192549 | 65 | 345 | 2.0 | 4.0 | 0.00 | 0.00 | 0.00 | 37 | 1018.4 |